Location: Unspecified
(0.0000°N, 0.0000°E)
Time: 21:14:04
(UTC+02:00)

Iridium 12 - Visible Passes

Search period start: 20 June 2018 00:00
Search period end: 30 June 2018 00:00
Orbit: 761 x 765 km, 86.4° (Epoch: 19 June)

Date Brightness Start Highest point End Pass type
(mag) Time Alt. Az. Time Alt. Az. Time Alt. Az.
20 Jun 7.3 21:41:20 10° SSW 21:45:47 30° W 21:50:12 10° NNW visible
21 Jun 5.6 21:02:54 10° S 21:08:02 78° W 21:13:09 10° N visible
22 Jun 5.9 20:25:29 10° SSE 20:30:18 41° E 20:35:05 10° NNE visible
22 Jun 8.7 22:10:06 10° W 22:10:24 10° W 22:10:42 10° W visible
23 Jun 7.6 21:28:24 10° SSW 21:32:40 27° W 21:36:57 10° NNW visible
24 Jun 5.8 20:49:50 10° S 20:54:56 70° W 21:00:02 10° N visible
26 Jun 7.8 21:15:28 10° SW 21:19:34 24° W 21:23:40 10° NW visible
27 Jun 6.1 20:36:46 10° S 20:41:50 62° W 20:46:54 10° N visible
28 Jun 8.3 07:29:17 10° NE 07:32:51 19° E 07:36:25 10° SE visible
29 Jun 8.0 21:02:35 10° SW 21:06:28 22° W 21:10:21 10° NW visible
